Location: Ailingen
(47.6833°N, 9.5000°E)
Time: 11:55:55
(UTC+00:00)

Landsat 7 - Pass Details

Date: 18 November 2025
Orbit: 680 x 682 km, 97.9° (Epoch: 11 December)

Event Time Altitude Azimuth Distance (km) Brightness Sun altitude
Rises 16:46:42 0° 162° (SSE) 3,031 7.1 -10.9°
Reaches altitude 10° 16:48:55 10° 161° (SSE) 2,120 6.3 -11.2°
Maximum altitude 16:53:34 80° 75° (ENE) 698 3.7 -12.0°
Drops below altitude 10° 16:58:14 10° 349° (NNW) 2,135 6.3 -12.7°
Sets 17:00:29 0° 348° (NNW) 3,055 7.1 -13.1°
